Ketchikan, AK

4:19 PM AKDT on July 27, 2017 (GMT -0800)
Ketchikan International

Weather History for PAKT - March, 2013

Change the Weather History Date:

Monday, March 25, 2013

  Actual Average Record
Temperature  
Mean Temperature 42 °F -  
Max Temperature 44 °F 46 °F 57 °F (1950)
Min Temperature 39 °F 33 °F 20 °F (1967)
Degree Days  
Heating Degree Days 24    
Moisture  
Dew Point 41 °F    
Average Humidity 97    
Maximum Humidity 100    
Minimum Humidity 82    
Precipitation  
Precipitation 1.25 in - - ()
Sea Level Pressure  
Sea Level Pressure 29.92 in    
Wind  
Wind Speed 11 mph (SE)    
Max Wind Speed 21 mph    
Max Gust Speed 28 mph    
Visibility 8 miles    
Events Rain    
Averages and records for this station are not official NWS values.
T = Trace of Precipitation, MM = Missing Value Source: NWS Daily Summary

Daily Weather History Graph

Daily Weather History Graph

Search for Another Location

Airport or City:

Trip Planner

Search our weather history database for the weather conditions in past years. The results will help you decide how hot, cold, wet, or windy it might be!

Date:

Astronomy

Mar. 25, 2013 Rise Set
Actual Time 6:35 AM AKDT 7:11 PM AKDT
Civil Twilight 5:58 AM AKDT 7:48 PM AKDT
Nautical Twilight 5:14 AM AKDT 8:32 PM AKDT
Astronomical Twilight 4:26 AM AKDT 9:20 PM AKDT
Moon 5:43 PM AKDT (3/25) 5:35 AM AKDT (3/25)
Length of Visible Light 13h 49m
Length of Day
12h 36m
Waxing Gibbous, 97% of the Moon is Illuminated
Mar 25
Waxing Gibbous
Mar 27
Full
Apr 2
Last Quarter
Apr 10
New
Apr 18
First Quarter

Hourly Weather History & Observations

Time (AKDT) Temp. Windchill Dew Point Humidity Pressure Visibility Wind Dir Wind Speed Gust Speed Precip Events Conditions
12:10 AM 42.8 °F 37.0 °F 39.2 °F 87% 29.93 in 10.0 mi SSE 10.4 mph 19.6 mph 0.00 in Rain Light Rain
12:53 AM 43.0 °F 37.7 °F 39.9 °F 89% 29.92 in 10.0 mi SSE 9.2 mph - 0.00 in Rain Light Rain
1:53 AM 44.1 °F 37.7 °F 39.0 °F 82% 29.90 in 10.0 mi SE 12.7 mph - 0.01 in   Overcast
2:53 AM 43.0 °F 34.8 °F 39.9 °F 89% 29.89 in 10.0 mi SE 18.4 mph 27.6 mph 0.00 in   Overcast
3:53 AM 42.8 °F 35.8 °F 41.0 °F 93% 29.87 in 6.0 mi SE 13.8 mph - N/A Rain Light Rain
4:53 AM 42.1 °F 33.9 °F 39.9 °F 92% 29.86 in 10.0 mi SE 17.3 mph 25.3 mph 0.05 in Rain Light Rain
5:53 AM 42.1 °F 35.7 °F 39.9 °F 92% 29.86 in 10.0 mi SSE 11.5 mph 20.7 mph 0.06 in Rain Light Rain
6:02 AM 42.8 °F 35.8 °F 41.0 °F 93% 29.85 in 10.0 mi SE 13.8 mph 20.7 mph 0.01 in Rain Light Rain
6:53 AM 42.1 °F 34.9 °F 39.9 °F 92% 29.86 in 7.0 mi SE 13.8 mph 20.7 mph 0.08 in Rain Rain
7:53 AM 42.1 °F 34.5 °F 42.1 °F 100% 29.86 in 7.0 mi SE 15.0 mph - 0.15 in Rain Light Rain
8:53 AM 42.1 °F 34.2 °F 41.0 °F 96% 29.87 in 5.0 mi SE 16.1 mph - 0.25 in Rain Rain
9:53 AM 42.1 °F 33.6 °F 42.1 °F 100% 29.88 in 3.0 mi SE 18.4 mph 26.5 mph 0.16 in Rain Rain
10:53 AM 42.1 °F 33.1 °F 42.1 °F 100% 29.89 in 3.0 mi SE 20.7 mph - 0.11 in Rain Light Rain
11:27 AM 42.8 °F 34.8 °F 42.8 °F 100% 29.89 in 2.0 mi SE 17.3 mph 23.0 mph 0.08 in Rain Rain
11:44 AM 42.8 °F 35.4 °F 42.8 °F 100% 29.89 in 3.0 mi SE 15.0 mph - 0.12 in Rain Light Rain
11:53 AM 43.0 °F 35.1 °F 43.0 °F 100% 29.90 in 3.0 mi SE 17.3 mph - 0.13 in Rain Light Rain
12:53 PM 43.0 °F 35.1 °F 43.0 °F 100% 29.91 in 4.0 mi ESE 17.3 mph - 0.04 in Rain Light Rain
1:53 PM 44.1 °F 38.1 °F 44.1 °F 100% 29.92 in 10.0 mi ESE 11.5 mph - 0.03 in Rain Light Rain
2:53 PM 44.1 °F 38.6 °F 44.1 °F 100% 29.93 in 10.0 mi SE 10.4 mph - 0.02 in Rain Light Rain
3:53 PM 44.1 °F 39.0 °F 44.1 °F 100% 29.93 in 10.0 mi SE 9.2 mph - 0.02 in Rain Light Rain
4:53 PM 43.0 °F 38.2 °F 43.0 °F 100% 29.94 in 10.0 mi SE 8.1 mph - 0.04 in Rain Light Rain
5:51 PM 42.8 °F 38.0 °F 42.8 °F 100% 29.94 in 7.0 mi SE 8.1 mph - 0.03 in Rain Light Rain
5:53 PM 43.0 °F 38.2 °F 43.0 °F 100% 29.95 in 10.0 mi SE 8.1 mph - 0.04 in Rain Light Rain
6:53 PM 42.1 °F 38.4 °F 42.1 °F 100% 29.96 in 10.0 mi SE 5.8 mph - 0.02 in Rain Light Rain
7:53 PM 42.1 °F 39.2 °F 42.1 °F 100% 29.96 in 10.0 mi SE 4.6 mph - 0.03 in Rain Light Rain
8:53 PM 39.9 °F - 39.9 °F 100% 29.98 in 10.0 mi Calm Calm - 0.00 in Rain Light Rain
9:15 PM 39.2 °F - 39.2 °F 100% 29.98 in 10.0 mi Calm Calm - 0.00 in Rain Light Rain
9:53 PM 39.9 °F - 39.9 °F 100% 29.99 in 10.0 mi Calm Calm - 0.01 in   Overcast
10:53 PM 39.9 °F - 39.9 °F 100% 29.99 in 5.0 mi Calm Calm - 0.00 in Rain Light Rain
11:05 PM 39.2 °F - 39.2 °F 100% 29.99 in 4.0 mi Calm Calm - 0.00 in   Overcast
11:17 PM 39.2 °F 37.0 °F 39.2 °F 100% 29.99 in 7.0 mi NW 3.5 mph - 0.00 in   Overcast
11:53 PM 39.9 °F 37.8 °F 39.9 °F 100% 30.00 in 10.0 mi WNW 3.5 mph - 0.00 in   Overcast